Weather in Kaolack

Senegal     14°09′42″N   16°03′32″W
temp.,
°C
wind,
m/s
gust,
m/s
humid.,
%
clouds,
%
prec.,
mm/h
press.,
hPa
HPBL,
m
6 march, sat
sat600:00+24nnw511250 0.0 1009266
03:00+23nnw492810 0.0 1009216
06:00+21nnw363428 0.0 1009123
09:00+27nne581419 0.0 1011369
12:00+36ene45810 0.0 1011963
15:00+40ne21822 0.0 10082605
18:00+40nw22850 0.0 10083253
21:00+26nw5102362 0.0 1011235
7 march, sun
sun700:00+24nnw4113244 0.0 1011261
03:00+23n5123118 0.0 1011295
06:00+23n4102339 0.0 1011197
09:00+28nne6101811 0.0 1013467
12:00+36ne681047 0.0 10131099
15:00+40ne56851 0.0 10092231
18:00+39nne551030 0.0 10083047
21:00+29nnw713210 0.0 1010273
8 march, mon
mon800:00+26n714230 0.0 1012355
03:00+23n512300 0.0 1010337
06:00+22n512290 0.0 1010353
09:00+24nne69230 0.0 1012462
12:00+34nne67100 0.0 1012986
15:00+38nne5680 0.0 10081836
18:00+38n5690 0.0 10072219
21:00+24nnw7133237 0.0 1009260
9 march, tue
tue900:00+22nnw7133828 0.0 1010300
03:00+20n714470 0.0 1009332
06:00+19n512510 0.0 1009331
09:00+22nne59360 0.0 1011430
12:00+32ne56140 0.0 10111005
15:00+37nne44100 0.0 10071696
18:00+36n44101 0.0 10072089
21:00+25nnw712270 0.0 1009226
10 march, wed
wed1000:00+22nnw612340 0.0 1010277
03:00+21n7124144 0.0 1009296
06:00+20n5124072 0.0 1009318
09:00+24ne4725100 0.0 1011457
12:00+32ene5612100 0.0 1012992
15:00+37ne4410100 0.0 10081593
18:00+37nne4410100 0.0 10071931
21:00+28nnw471898 0.0 1010122